Coffeyville, KS

9:53 AM CDT on March 24, 2017 (GMT -0500)
Coffeyville Municipal

Weather History for KCFV - March, 2013

Change the Weather History Date:

Thursday, March 14, 2013

  Actual Average Record
Temperature  
Mean Temperature 56 °F -  
Max Temperature 80 °F 53 °F 82 °F (2002)
Min Temperature 33 °F 32 °F 24 °F (1997)
Degree Days  
Heating Degree Days 9    
Growing Degree Days 6 (Base 50)    
Moisture  
Dew Point 32 °F    
Average Humidity 46    
Maximum Humidity 72    
Minimum Humidity 20    
Precipitation  
Precipitation 0.00 in - - ()
Sea Level Pressure  
Sea Level Pressure 30.18 in    
Wind  
Wind Speed 7 mph (SSW)    
Max Wind Speed 17 mph    
Max Gust Speed 25 mph    
Visibility 10 miles    
Events      
Averages and records for this station are not official NWS values.
T = Trace of Precipitation, MM = Missing Value Source: NWS Daily Summary

Daily Weather History Graph

Daily Weather History Graph

Search for Another Location

Airport or City:

Trip Planner

Search our weather history database for the weather conditions in past years. The results will help you decide how hot, cold, wet, or windy it might be!

Date:

Astronomy

Mar. 14, 2013 Rise Set
Actual Time 7:34 AM CDT 7:28 PM CDT
Civil Twilight 7:08 AM CDT 7:54 PM CDT
Nautical Twilight 6:38 AM CDT 8:25 PM CDT
Astronomical Twilight 6:07 AM CDT 8:55 PM CDT
Moon 8:53 AM CDT (3/14) 10:40 PM CDT (3/14)
Length of Visible Light 12h 46m
Length of Day
11h 54m
Waxing Crescent, 9% of the Moon is Illuminated
Mar 14
Waxing Crescent
Mar 19
First Quarter
Mar 27
Full
Apr 2
Last Quarter
Apr 10
New

Hourly Weather History & Observations

Time (CDT) Temp. Windchill Dew Point Humidity Pressure Visibility Wind Dir Wind Speed Gust Speed Precip Events Conditions
12:52 AM 37.9 °F 35.5 °F 23.0 °F 55% 30.32 in 10.0 mi SE 3.5 mph - N/A   Clear
1:52 AM 37.9 °F 32.7 °F 24.1 °F 57% 30.30 in 10.0 mi SSE 6.9 mph - N/A   Clear
2:52 AM 37.0 °F 33.3 °F 24.1 °F 59% 30.30 in 10.0 mi SSE 4.6 mph - N/A   Clear
3:52 AM 37.0 °F - 24.1 °F 59% 30.27 in 10.0 mi Calm Calm - N/A   Clear
4:52 AM 37.9 °F - 24.1 °F 57% 30.26 in 10.0 mi Calm Calm - N/A   Clear
5:52 AM 33.1 °F 28.7 °F 25.0 °F 72% 30.26 in 10.0 mi SSE 4.6 mph - N/A   Clear
6:52 AM 34.0 °F 29.8 °F 25.0 °F 70% 30.27 in 10.0 mi South 4.6 mph - N/A   Clear
7:52 AM 36.0 °F 30.3 °F 27.0 °F 70% 30.27 in 10.0 mi South 6.9 mph - N/A   Clear
9:52 AM 51.1 °F - 30.0 °F 44% 30.25 in 10.0 mi South 12.7 mph - N/A   Clear
10:52 AM 57.9 °F - 30.9 °F 36% 30.23 in 10.0 mi SSW 13.8 mph - N/A   Clear
11:52 AM 62.1 °F - 33.1 °F 34% 30.22 in 10.0 mi SW 16.1 mph 20.7 mph N/A   Clear
12:52 PM 69.1 °F - 36.0 °F 30% 30.18 in 10.0 mi SW 17.3 mph 23.0 mph N/A   Clear
1:52 PM 72.0 °F - 37.0 °F 28% 30.16 in 10.0 mi SSW 12.7 mph - N/A   Clear
2:52 PM 75.9 °F - 37.0 °F 24% 30.11 in 10.0 mi SSW 17.3 mph 25.3 mph N/A   Clear
3:52 PM 78.1 °F - 35.1 °F 21% 30.09 in 10.0 mi WSW 17.3 mph - N/A   Clear
4:52 PM 79.0 °F - 36.0 °F 21% 30.08 in 10.0 mi SW 17.3 mph 23.0 mph N/A   Clear
5:52 PM 79.0 °F - 35.1 °F 20% 30.07 in 10.0 mi WSW 12.7 mph - N/A   Clear
6:52 PM 75.0 °F - 37.0 °F 25% 30.07 in 10.0 mi WNW 6.9 mph - N/A   Clear
7:52 PM 66.9 °F - 37.9 °F 34% 30.07 in 10.0 mi WNW 3.5 mph - N/A   Clear
8:52 PM 62.1 °F - 37.9 °F 41% 30.09 in 10.0 mi Calm Calm - N/A   Clear
9:52 PM 55.9 °F - 41.0 °F 57% 30.09 in 10.0 mi Calm Calm - N/A   Clear
10:52 PM 51.1 °F - 41.0 °F 68% 30.09 in 10.0 mi Calm Calm - N/A   Clear
11:52 PM 51.1 °F - 39.9 °F 66% 30.09 in 10.0 mi Calm Calm - N/A   Clear